Time,TemperatureF,DewpointF,PressureIn,WindDirection,WindDirectionDegrees,WindSpeedMPH,WindSpeedGustMPH,Humidity,HourlyPrecipIn,Conditions,Clouds,dailyrainin,SoftwareType,DateUTC
2013-02-22 00:14:00,25.9,16.5,30.22,NNE,22,2.7,-999.0,67,-99.99,,,0.00,Acu-Link.com,2013-02-22 05:14:00,
2013-02-22 00:30:00,25.0,16.3,30.22,ESE,112,2.7,-999.0,69,-99.99,,,0.00,Acu-Link.com,2013-02-22 05:30:00,
2013-02-22 00:45:00,24.4,16.4,30.22,SE,135,2.7,-999.0,71,-99.99,,,0.00,Acu-Link.com,2013-02-22 05:45:00,
2013-02-22 01:00:00,23.9,16.2,30.23,NNE,22,3.7,-999.0,72,-99.99,,,0.00,Acu-Link.com,2013-02-22 06:00:00,
2013-02-22 01:15:00,23.4,16.7,30.25,WSW,247,4.2,-999.0,75,-99.99,,,0.00,Acu-Link.com,2013-02-22 06:15:00,
2013-02-22 01:31:00,23.4,16.4,30.25,North,0,2.2,-999.0,74,-99.99,,,0.00,Acu-Link.com,2013-02-22 06:31:00,
2013-02-22 01:46:00,23.9,16.2,30.26,East,90,2.2,-999.0,72,-99.99,,,0.00,Acu-Link.com,2013-02-22 06:46:00,
2013-02-22 02:01:00,23.4,16.4,30.25,NE,45,2.7,-999.0,74,-99.99,,,0.00,Acu-Link.com,2013-02-22 07:01:00,
2013-02-22 02:16:00,23.4,16.7,30.24,NNE,22,3.2,-999.0,75,-99.99,,,0.00,Acu-Link.com,2013-02-22 07:16:00,
2013-02-22 02:31:00,23.7,16.3,30.23,NNE,22,4.2,-999.0,73,-99.99,,,0.00,Acu-Link.com,2013-02-22 07:31:00,
2013-02-22 02:46:00,24.1,16.4,30.23,NNE,22,3.2,-999.0,72,-99.99,,,0.00,Acu-Link.com,2013-02-22 07:46:00,
2013-02-22 03:01:00,24.3,16.3,30.24,NNE,22,5.3,-999.0,71,-99.99,,,0.00,Acu-Link.com,2013-02-22 08:01:00,
2013-02-22 03:16:00,24.1,16.4,30.23,NE,45,3.2,-999.0,72,-99.99,,,0.00,Acu-Link.com,2013-02-22 08:16:00,
2013-02-22 03:32:00,23.5,16.1,30.24,West,270,2.7,-999.0,73,-99.99,,,0.00,Acu-Link.com,2013-02-22 08:32:00,
2013-02-22 03:47:00,23.2,17.1,30.24,WNW,292,2.7,-999.0,77,-99.99,,,0.00,Acu-Link.com,2013-02-22 08:47:00,
2013-02-22 04:19:00,23.0,16.9,30.24,NNE,22,1.7,-999.0,77,-99.99,,,0.00,Acu-Link.com,2013-02-22 09:19:00,
2013-02-22 04:34:00,22.8,17.3,30.25,NW,315,2.2,-999.0,79,-99.99,,,0.00,Acu-Link.com,2013-02-22 09:34:00,
2013-02-22 04:49:00,22.8,18.1,30.25,West,270,2.7,-999.0,82,-99.99,,,0.00,Acu-Link.com,2013-02-22 09:49:00,
2013-02-22 05:04:00,23.0,17.2,30.26,NW,315,2.2,-999.0,78,-99.99,,,0.00,Acu-Link.com,2013-02-22 10:04:00,
2013-02-22 05:19:00,23.2,17.7,30.26,ENE,67,0.0,-999.0,79,-99.99,,,0.00,Acu-Link.com,2013-02-22 10:19:00,
2013-02-22 05:35:00,23.2,17.4,30.25,WNW,292,2.7,-999.0,78,-99.99,,,0.00,Acu-Link.com,2013-02-22 10:35:00,
2013-02-22 05:50:00,23.2,17.7,30.24,NNW,337,1.7,-999.0,79,-99.99,,,0.00,Acu-Link.com,2013-02-22 10:50:00,
2013-02-22 06:05:00,23.0,17.8,30.26,WSW,247,2.7,-999.0,80,-99.99,,,0.00,Acu-Link.com,2013-02-22 11:05:00,
2013-02-22 06:20:00,23.0,18.3,30.26,NW,315,2.2,-999.0,82,-99.99,,,0.00,Acu-Link.com,2013-02-22 11:20:00,
2013-02-22 06:35:00,23.0,18.1,30.25,NE,45,1.7,-999.0,81,-99.99,,,0.00,Acu-Link.com,2013-02-22 11:35:00,
2013-02-22 06:51:00,23.0,17.8,30.24,East,90,2.7,-999.0,80,-99.99,,,0.00,Acu-Link.com,2013-02-22 11:51:00,
2013-02-22 07:06:00,23.2,17.7,30.24,NE,45,2.2,-999.0,79,-99.99,,,0.00,Acu-Link.com,2013-02-22 12:06:00,
2013-02-22 07:21:00,23.7,17.9,30.25,NW,315,1.7,-999.0,78,-99.99,,,0.00,Acu-Link.com,2013-02-22 12:21:00,
2013-02-22 07:36:00,24.3,18.4,30.25,East,90,0.0,-999.0,78,-99.99,,,0.00,Acu-Link.com,2013-02-22 12:36:00,
2013-02-22 07:52:00,24.8,18.0,30.26,East,90,0.0,-999.0,75,-99.99,,,0.00,Acu-Link.com,2013-02-22 12:52:00,
2013-02-22 08:07:00,25.3,17.9,30.25,ESE,112,4.2,-999.0,73,-99.99,,,0.00,Acu-Link.com,2013-02-22 13:07:00,
2013-02-22 08:22:00,26.1,18.0,30.25,South,180,3.2,-999.0,71,-99.99,,,0.00,Acu-Link.com,2013-02-22 13:22:00,
2013-02-22 08:37:00,27.1,18.3,30.25,WSW,247,1.1,-999.0,69,-99.99,,,0.00,Acu-Link.com,2013-02-22 13:37:00,
2013-02-22 08:53:00,27.9,18.4,30.24,SSE,157,2.7,-999.0,67,-99.99,,,0.00,Acu-Link.com,2013-02-22 13:53:00,
2013-02-22 09:08:00,28.2,18.7,30.23,SE,135,3.2,-999.0,67,-99.99,,,0.00,Acu-Link.com,2013-02-22 14:08:00,
2013-02-22 09:23:00,28.0,18.1,30.23,SSE,157,5.8,-999.0,66,-99.99,,,0.00,Acu-Link.com,2013-02-22 14:23:00,
2013-02-22 09:38:00,28.9,18.6,30.23,ESE,112,6.3,-999.0,65,-99.99,,,0.00,Acu-Link.com,2013-02-22 14:38:00,
2013-02-22 09:53:00,28.9,18.3,30.22,SE,135,5.8,-999.0,64,-99.99,,,0.00,Acu-Link.com,2013-02-22 14:53:00,
2013-02-22 10:08:00,28.9,19.0,30.21,ESE,112,7.8,-999.0,66,-99.99,,,0.00,Acu-Link.com,2013-02-22 15:08:00,
2013-02-22 10:24:00,29.3,19.4,30.20,ESE,112,6.3,-999.0,66,-99.99,,,0.00,Acu-Link.com,2013-02-22 15:24:00,
2013-02-22 10:39:00,30.2,19.1,30.20,ESE,112,7.8,-999.0,63,-99.99,,,0.00,Acu-Link.com,2013-02-22 15:39:00,
2013-02-22 10:54:00,30.6,19.5,30.19,East,90,8.3,-999.0,63,-99.99,,,0.00,Acu-Link.com,2013-02-22 15:54:00,
2013-02-22 11:09:00,30.9,20.5,30.17,ESE,112,8.9,-999.0,65,-99.99,,,0.00,Acu-Link.com,2013-02-22 16:09:00,
2013-02-22 11:24:00,31.6,20.5,30.18,SSE,157,7.3,-999.0,63,-99.99,,,0.00,Acu-Link.com,2013-02-22 16:24:00,
2013-02-22 11:39:00,32.5,20.2,30.18,SE,135,7.3,-999.0,60,-99.99,,,0.00,Acu-Link.com,2013-02-22 16:39:00,
2013-02-22 11:54:00,32.5,20.6,30.18,SE,135,9.4,-999.0,61,-99.99,,,0.00,Acu-Link.com,2013-02-22 16:54:00,
2013-02-22 12:09:00,32.2,20.7,30.17,SE,135,7.3,-999.0,62,-99.99,,,0.00,Acu-Link.com,2013-02-22 17:09:00,
2013-02-22 12:24:00,32.7,20.8,30.16,SE,135,9.4,-999.0,61,-99.99,,,0.00,Acu-Link.com,2013-02-22 17:24:00,
2013-02-22 12:39:00,33.1,20.7,30.16,SSE,157,8.9,-999.0,60,-99.99,,,0.00,Acu-Link.com,2013-02-22 17:39:00,
2013-02-22 12:54:00,33.6,21.6,30.16,ESE,112,8.3,-999.0,61,-99.99,,,0.00,Acu-Link.com,2013-02-22 17:54:00,
2013-02-22 13:09:00,34.2,22.2,30.15,ESE,112,7.8,-999.0,61,-99.99,,,0.00,Acu-Link.com,2013-02-22 18:09:00,
2013-02-22 13:24:00,33.4,21.4,30.14,SSW,202,8.9,-999.0,61,-99.99,,,0.00,Acu-Link.com,2013-02-22 18:24:00,
2013-02-22 13:39:00,33.3,22.1,30.13,SSE,157,7.3,-999.0,63,-99.99,,,0.00,Acu-Link.com,2013-02-22 18:39:00,
2013-02-22 13:55:00,33.8,21.8,30.13,SSW,202,8.9,-999.0,61,-99.99,,,0.00,Acu-Link.com,2013-02-22 18:55:00,
2013-02-22 14:10:00,33.8,22.2,30.14,South,180,5.8,-999.0,62,-99.99,,,0.00,Acu-Link.com,2013-02-22 19:10:00,
2013-02-22 14:25:00,33.4,21.8,30.13,ESE,112,6.3,-999.0,62,-99.99,,,0.00,Acu-Link.com,2013-02-22 19:25:00,
2013-02-22 14:40:00,33.6,22.7,30.12,South,180,6.8,-999.0,64,-99.99,,,0.00,Acu-Link.com,2013-02-22 19:40:00,
2013-02-22 14:55:00,33.6,22.4,30.12,South,180,9.4,-999.0,63,-99.99,,,0.00,Acu-Link.com,2013-02-22 19:55:00,
2013-02-22 15:10:00,33.4,22.6,30.12,South,180,7.3,-999.0,64,-99.99,,,0.00,Acu-Link.com,2013-02-22 20:10:00,
2013-02-22 15:26:00,33.3,22.8,30.11,SSE,157,7.8,-999.0,65,-99.99,,,0.00,Acu-Link.com,2013-02-22 20:26:00,
2013-02-22 15:41:00,33.3,22.8,30.12,South,180,6.3,-999.0,65,-99.99,,,0.00,Acu-Link.com,2013-02-22 20:41:00,
2013-02-22 15:56:00,33.3,23.2,30.12,South,180,5.8,-999.0,66,-99.99,,,0.00,Acu-Link.com,2013-02-22 20:56:00,
2013-02-22 16:12:00,32.9,23.5,30.12,SSW,202,6.8,-999.0,68,-99.99,,,0.00,Acu-Link.com,2013-02-22 21:12:00,
2013-02-22 16:27:00,32.5,24.2,30.12,SSW,202,6.3,-999.0,71,-99.99,,,0.00,Acu-Link.com,2013-02-22 21:27:00,
2013-02-22 16:42:00,32.2,25.2,30.11,South,180,6.8,-999.0,75,-99.99,,,0.00,Acu-Link.com,2013-02-22 21:42:00,
2013-02-22 16:57:00,32.0,25.3,30.11,South,180,3.2,-999.0,76,-99.99,,,0.00,Acu-Link.com,2013-02-22 21:57:00,
2013-02-22 17:12:00,32.0,25.0,30.10,SSE,157,5.3,-999.0,75,-99.99,,,0.00,Acu-Link.com,2013-02-22 22:12:00,
2013-02-22 17:27:00,32.0,25.3,30.11,SSE,157,3.2,-999.0,76,-99.99,,,0.00,Acu-Link.com,2013-02-22 22:27:00,
2013-02-22 17:42:00,32.0,25.3,30.10,South,180,5.3,-999.0,76,-99.99,,,0.00,Acu-Link.com,2013-02-22 22:42:00,
2013-02-22 17:57:00,32.0,25.6,30.11,South,180,3.7,-999.0,77,-99.99,,,0.00,Acu-Link.com,2013-02-22 22:57:00,
2013-02-22 18:12:00,32.0,25.9,30.10,South,180,2.7,-999.0,78,-99.99,,,0.00,Acu-Link.com,2013-02-22 23:12:00,
2013-02-22 18:28:00,32.0,25.9,30.12,SSE,157,3.7,-999.0,78,-99.99,,,0.00,Acu-Link.com,2013-02-22 23:28:00,
2013-02-22 18:43:00,32.0,26.2,30.11,South,180,3.7,-999.0,79,-99.99,,,0.00,Acu-Link.com,2013-02-22 23:43:00,
2013-02-22 18:58:00,32.0,26.2,30.11,South,180,4.7,-999.0,79,-99.99,,,0.00,Acu-Link.com,2013-02-22 23:58:00,
2013-02-22 19:13:00,32.0,26.2,30.12,South,180,3.2,-999.0,79,-99.99,,,0.00,Acu-Link.com,2013-02-23 00:13:00,
2013-02-22 19:28:00,32.2,26.7,30.11,South,180,6.3,-999.0,80,-99.99,,,0.00,Acu-Link.com,2013-02-23 00:28:00,
2013-02-22 19:43:00,32.2,26.7,30.10,SSE,157,4.2,-999.0,80,-99.99,,,0.00,Acu-Link.com,2013-02-23 00:43:00,
2013-02-22 19:58:00,32.4,27.2,30.09,SSE,157,7.3,-999.0,81,-99.99,,,0.00,Acu-Link.com,2013-02-23 00:58:00,
2013-02-22 20:14:00,32.4,27.2,30.09,SE,135,8.9,-999.0,81,-99.99,,,0.00,Acu-Link.com,2013-02-23 01:14:00,
2013-02-22 20:29:00,32.4,27.2,30.09,ESE,112,5.8,-999.0,81,-99.99,,,0.00,Acu-Link.com,2013-02-23 01:29:00,
2013-02-22 20:44:00,32.4,27.2,30.08,SE,135,6.3,-999.0,81,-99.99,,,0.00,Acu-Link.com,2013-02-23 01:44:00,
2013-02-22 20:59:00,32.5,27.3,30.08,ESE,112,5.8,-999.0,81,-99.99,,,0.00,Acu-Link.com,2013-02-23 01:59:00,
2013-02-22 21:14:00,32.5,27.6,30.09,SSE,157,4.2,-999.0,82,-99.99,,,0.00,Acu-Link.com,2013-02-23 02:14:00,
2013-02-22 21:29:00,32.5,27.6,30.08,SSE,157,5.3,-999.0,82,-99.99,,,0.00,Acu-Link.com,2013-02-23 02:29:00,
2013-02-22 21:44:00,32.7,27.5,30.08,SSE,157,5.8,-999.0,81,-99.99,,,0.00,Acu-Link.com,2013-02-23 02:44:00,
2013-02-22 21:59:00,32.7,27.8,30.07,SSE,157,4.2,-999.0,82,-99.99,,,0.00,Acu-Link.com,2013-02-23 02:59:00,
2013-02-22 22:14:00,32.9,28.3,30.07,SSE,157,4.7,-999.0,83,-99.99,,,0.00,Acu-Link.com,2013-02-23 03:14:00,
2013-02-22 22:29:00,32.9,28.9,30.06,South,180,4.7,-999.0,85,-99.99,,,0.00,Acu-Link.com,2013-02-23 03:29:00,
2013-02-22 22:44:00,32.9,28.9,30.06,SSE,157,5.3,-999.0,85,-99.99,,,0.00,Acu-Link.com,2013-02-23 03:44:00,
2013-02-22 23:00:00,32.9,29.2,30.06,SSE,157,3.7,-999.0,86,-99.99,,,0.00,Acu-Link.com,2013-02-23 04:00:00,
2013-02-22 23:15:00,32.9,29.5,30.06,SSE,157,3.7,-999.0,87,-99.99,,,0.00,Acu-Link.com,2013-02-23 04:15:00,
2013-02-22 23:30:00,32.9,29.5,30.05,SSE,157,2.7,-999.0,87,-99.99,,,0.00,Acu-Link.com,2013-02-23 04:30:00,
2013-02-22 23:45:00,32.9,29.7,30.06,SSE,157,3.7,-999.0,88,-99.99,,,0.00,Acu-Link.com,2013-02-23 04:45:00,